Погода в Костроме

Погода в Костроме : погода сейчас, прогноз погоды и архив. Всё, что Вы хотите узнать о погоде в Костроме!

Хотите узнать прогноз погоды в Костроме? Тогда Вам сюда: Погода в Костроме

Поиск расширенной информации на нашем сайте:

Другие новости

Новости СМИ2

Главная страница сайта

Новости сайта

02.10.2013

Напоминаем, что на нашем новом сайте вы можете получить высокодетализированные прогнозы погоды по пунктам России, СНГ и мира (включающие важные для авиации метеовеличины, такие как направление и скорость ветра, видимость, явления погоды, количество и форма облачности, нижняя и верхняя граница облачности), а также ознакомиться с разнообразными материалами по авиационной метеорологии и подборкой полезных ссылок на эту тему.

Сайт Метеоцентр.Азия посвящён разработке технологий оптимизации авиаметеорологического обслуживания, включая проектирование и перспективное создание нескольких автоматизированных авиаметеорологических систем:
- система выпуска высокодетальных прогностических карт явлений погоды для нижнего воздушного пространства по России и ближнему зарубежью;
- система верификации прогнозов TAF (выпускаемых синоптиками официальных АМСГ РФ и ближнего зарубежья) и AUTOTAF (выпускаемых сайтом Метеоцентр.Азия) - выявление ошибок, онлайн-сопоставление с фактической погодой METAR, автоматическое внесение коррективов в прогнозы при резком отклонении фактической погоды от прогноза, подсчёт оправдываемости прогнозов по элементам и в целом;
- система обработки, анализа и отображения авиаметеорологической информации для применения провайдерами метеорологической информации.

Рекомендуем: шланги, фитинги

Погода в Костроме - сегодня

Время (UTC), дата Ветер
(°,м/с) 
Видим.   Явления Облачность Т
(°С)
Тd
(°С)
f(%) Тe
(°С)
Pmin
(гПа)
dP
(гПа)
Po
(мм)
O2
(г/м3)
Тmin Tmax R s Состояние
почвы
21 23.06.17 230 (ЮЗ) 50000 м    6/3 600 м кучево-дожд., верхняя 
[Cb cap|Ci fib]
+6 +4.6 91 +6  1003.9  0.1  741  292           
00 24.06.17 250 (З) 30000 м    8/3 600 м кучево-дожд., средняя, верхняя 
[Cb cap|Ac trans|Cc]
+6.4 +4.4 87 +6  1004.2  0.4  742  291           
03 24.06.17 300 (СЗ) 30000 м    9/5 600 м кучево-дожд., средняя 
[Cb cap|Ac trans]
+9.5 +7.2 86 +11  1004.7  0.6  742  288  +4.6        влажная 
06 24.06.17 010 (С) 30000 м    9/9 600 м 
[Cu med, cong]
+13.1 +7.3 68 +14  1005.1  0.6  743  284           
09 24.06.17 360 (С) 30000 м    9/9 600 м 
[Cu med, cong]
+13.6 +4 52 +14  1005.6  0.5  743  285           
12 24.06.17 340 (С) 30000 м    9/9 600 м 
[Cu med, cong]
+13.9 +3.2 48 +14  1005.7  743  284           
15 24.06.17 030 (СВ) 30000 м    6/6 600 м 
[Cu med, cong]
+13.9 +3 48 +14  1006.1  0.4  743  285    +15       
18 24.06.17 210 (ЮЗ) 30000 м    1/1 600 м 
[Cu hum]
+8.3 +4.3 76 +9  1006.7  0.3  744  290           
21 24.06.17 220 (ЮЗ) 50000 м    1/0 верхняя 
[Ci fib]
+5.1 +2.8 85 +5  1007.4  0.5  744  294           
00 25.06.17 220 (ЮЗ) 30000 м    1/0 верхняя 
[Ci fib]
+4.1 +2.6 90 +3  1007.4  744  295           
03 25.06.17 210 (ЮЗ) 30000 м    10/0 верхняя 
[Ci]
+8.5 +5.1 79 +8  1007.2  744  290  +2.7        влажная 
06 25.06.17 180 (Ю) 30000 м    5/0 верхняя 
[Cc]
+14.4 +4.5 51 +14  1006.2  -0.6  743  284           
09 25.06.17 190 (Ю) 30000 м    10/5 300 м кучево-дожд., средняя, верхняя 
[Cb calv|Ac As|Cc]
+15.8 +5.3 50 +16  1005.7  -0.5  743  282           
12 25.06.17 170 (Ю) 28000 м  слаб. дождь  10/5 600 м средняя 
[Sc diur, vesp|Ac As]
+12.2 +9.6 84 +13  1005.6  -0.2  743  285           
15 25.06.17 160 (Ю) 28000 м  слаб. дождь  10/8 300 м средняя 
[Frnb|Ac As]
+10.8 +9.4 91 +11  1004.7  -1  742  286    +16.3     
18 25.06.17 180 (Ю) 28000 м  {дождь}  10/8 600 м средняя 
[Sc|Ac As]
+11.4 +10.4 94 +14  1004.8  0.1  742  285           
21 25.06.17 190 (Ю) 18000 м  в посл. час ливневой дождь  10/8 300 м средняя 
[Sc|Ac As]
+12.1 +11.2 94 +15  1003.6  -1.1  741  284           
00 26.06.17 210 (ЮЗ) 30000 м  {ливн. осадки, дождь}  10/5 600 м средняя 
[Sc|Ac As]
+11.7 +10.8 94 +14  1003.8  0.2  742  284           
03 26.06.17 200 (Ю) 28000 м    10/8 300 м средняя 
[Frnb|Ac As]
+12.6 +11.5 93 +16  1003.5  -0.3  741  283  +10.7    0.0    влажная 
06 26.06.17 220 (ЮЗ) 30000 м  {ливн. осадки}  10/0 средняя 
[Ac und]
+15.9 +13.7 87 +24  1003.1  -0.2  741  279           
09 26.06.17 220 (ЮЗ) 30000 м  слаб. ливневой дождь  10/8 600 м кучево-дожд., средняя 
[Cb cap|Ac trans]
+17 +14 82 +24  1003.5  0.5  742  278           
12 26.06.17 220 (ЮЗ) 3{12}  30000 м  {ливн. осадки}  10/0 средняя 
[Ac und]
+17.9 +11.4 66 +21  1003  -0.5  741  278           
15 26.06.17 180 (Ю) 4{11}  30000 м    10/3 600 м кучево-дожд., средняя, верхняя 
[Cb cap|Ac trans|Ci fib]
+19.1 +13.7 71 +27  1000.5  -2.5  739  276    +19.8  0.0     
18 26.06.17 260 (З) 3{11}  30000 м  слаб. ливневой дождь  10/6 600 м кучево-дожд., средняя 
[Cb cap|Ac trans]
+14.8 +13.1 90 +21  1000.9  0.3  740  280           
21 26.06.17 220 (ЮЗ) 50000 м  {ливн. осадки}  10/0 средняя 
[Ac und]
+12.6 +11.5 93 +16  1000.1  -1  739  282           
Время (UTC), дата Ветер
(°,м/с) 
Видим.   Явления Облачность Т
(°С)
Тd
(°С)
f(%) Тe
(°С)
Pmin
(гПа)
dP
(гПа)
Po
(мм)
O2
(г/м3)
Тmin Tmax R s Состояние
почвы

Для получения пояснительной информации подведите курсор к названию столбца.

ПОГОДА в Костроме - архив

Всё, что Вы хотите узнать о погоде в Костроме - удобно и подробно!

Выберите нужную дату (начиная с 1 января 2015* года) и нажмите кнопку "Найти".
Будут отображены архивные сводки погоды по пункту Кострома, начиная с указанной даты.


Отображать данные в формате CSV (для использования в таблицах Excel)


Внимание! Наш архив погоды предназначен исключительно для личного некоммерческого использования в познавательных целях. Если Вам необходимы официальные справки о состоянии погоды (для производственных, юридических, коммерческих и т.п. целей), обращайтесь в органы Росгидромета.

*Примечание: данная дата относится к архиву по метеостанциям СССР (Россия, СНГ, Балтия).
Архив по метеостанциям Зарубежной Европы и Азии (кроме Китая) хранится 10 дней, по другим регионам земного шара (Китай, Африка, Америка, Австралия, Океания) - 1 день.

Кострома - район местоположения метеостанции


Название, широта, долгота, высота метеостанции:
Кострома 57.7°ш. 40.8°д. 126 м над ур. моря [Российская Федерация]

Дополнительная информация

В oтличие oт бoльшинства пoгoдных сайтoв мы публикуем пoдрoбную метеoинфoрмацию в детальнoм прoфессиoнальнoм фoрмате.

Характеристики температуры и влажнoсти вoздуха измеряются на высoте 2 м в тени вдали oт зданий и деревьев.
Скoрoсть ветра измеряется на высoте 10 м (на урoвне рoста челoвека скoрoсть ветра ниже в 1.5-2 раза). Если метеoстанция нахoдится в гoрoде или в лесу, тo скoрoсть ветра занижена на 2-4 м/с пo сравнению с oткрытым местoм. Скoрoсть ветра над акватoриями крупных рек и oзёр, а также на вершинах хoлмoв на 2-5 м/с выше, чем в oбычных услoвиях.
Атмoсфернoе давление в разных тoчках местнoсти мoжет значительнo oтличаться oт давления на метеoстанции, в зависимoсти oт услoвий рельефа (при пoдъёме на 10 м давление пoнижается примернo на 1 мм рт.ст.).